FENGYUN 1C DEB, 32461

Orbit data source: Space-Track

FENGYUN 1C DEB, 32461 is space debris in SSO originally from a launch on Mon, 10 May 1999 UTC launched from the Taiyaun Space Center, China (TSC). Fengyun 1C debris stems from the Chinese weather satellite Fengyun-1C, which was intentionally destroyed by a Chinese anti-satellite missile in 2007. This event dramatically increased the amount of space debris, with thousands of trackable fragments posing hazards to satellites and human spaceflight. The Fengyun 1C debris cloud has become a focal point in discussions about space sustainability and the need for international regulations to prevent the creation of new debris.

Loading next visibility...
Identifier
32461, 1999-025DBZ
Orbit
SSO
Country
Flag of CNCN / PRC
Related business
Manufacturer
Unknown
Mission
Spacecraft
Bus & Motor
Unknown
Mass
Unknown
Launch date (UTC)
1999-05-10 (27 years ago)
Launch vehicle
Unknown
Launch site
Taiyaun Space Center, China (TSC)
Object type
Payload
Rocket body
Debris
Shape & HBR
Unknown shape, 0.1 m
Radar Cross Section
Small (<0.1 m²)

Expand to show TLE details & history
Last TLE update: 2 weeks ago

TLE from 2 weeks ago
0 FENGYUN 1C DEB
1 32461U 99025DBZ 26156.80391267  .00001054  00000-0  96654-3 0  9990
2 32461  98.3228 354.5176 0232844   5.8189  51.1447 13.73308031696973
Epoch: 2026-06-05T19:17Z
TLE epoch observation values (Epoch: 2026-06-05T19:17:38.054Z)
Latitude
58.18386°
Longitude
157.31524°
Altitude
892.352 km
Speed
7.464 km/s
True Right ascension
22h 43m 48s
True Declination
58° 01' 57"
Sunlit
Object was in daylight at epoch
Visualization orbit readout
Latitude
Unknown
Longitude
Unknown
Altitude
Unknown
Speed
Unknown
Apparent Right ascension
Unknown
Apparent Declination
Unknown
Sunlit
N/A
Visualization observer readout
Local Sidereal Time
00:50:44
Azimuth
Unknown
Elevation
Unknown
Doppler factor
Unknown
Orbital elements
Apogee altitude
1,156.364 km
Perigee altitude
813.476 km
Semi-major axis
7,363.057 km
Eccentricity
0.02328
Inclination
98.3228°
RAAN
354.5176°
Arg. of periapsis
5.8189°
True anomaly
53.26065°
Mean anomaly
51.1447°
Eccentric anomaly
52.19883°
Mean motion
3.43523 °/min
Orbital period
104.8 mins
BSTAR
0.00096654
Loading maneuver chart data...
Computing Atmospheric mass density...

Documentation

Showing up to 5 results
|